Weather observations for the past three days for
Corsicana, Campbell Field-Corsicana Municipal Airport
| Date | Time (cdt) | Wind (kph) | Vis. (km) | Weather | Sky Cond. | Temperature (ºC) | Relative Humidity | Wind Chill (°C) | Heat Index (°C) | Pressure | Precipitation (cm) | ||||||
|---|---|---|---|---|---|---|---|---|---|---|---|---|---|---|---|---|---|
| Air | Dwpt | 6 hour | altimeter (cm) | sea level (mb) | 1 hr | 3 hr | 6 hr | ||||||||||
| Max. | Min. | ||||||||||||||||
| 04 | 20:53 | S 19 | 16.09 | Fair | CLR | 23.9 | 17.2 | 66% | 25 | 75.59 | 1007.4 | ||||||
| 04 | 19:53 | S 19 | 16.09 | Fair | CLR | 25 | 17.2 | 62% | 26 | 75.59 | 1007.5 | ||||||
| 04 | 18:53 | S 24 G 37 | 16.09 | Fair | CLR | 26.1 | 17.2 | 28.3 | 26.1 | 58% | 27 | 75.62 | 1007.9 | ||||
| 04 | 17:53 | S 31 G 50 | 16.09 | Fair | CLR | 27.2 | 16.7 | 53% | 28 | 75.67 | 1008.2 | ||||||
| 04 | 16:53 | S 24 G 46 | 16.09 | A Few Clouds | FEW045 | 27.8 | 16.7 | 51% | 28 | 75.69 | 1008.7 | ||||||
| 04 | 15:53 | S 30 G 48 | 16.09 | Fair | CLR | 27.8 | 16.1 | 49% | 28 | 75.77 | 1009.7 | ||||||
| 04 | 14:53 | S 26 G 43 | 16.09 | Fair | CLR | 27.8 | 15 | 46% | 28 | 75.84 | 1010.7 | ||||||
| 04 | 13:53 | S 26 G 46 | 16.09 | Fair | CLR | 27.2 | 13.9 | 44% | 27 | 75.92 | 1011.8 | ||||||
| 04 | 12:53 | S 31 G 43 | 16.09 | Fair | CLR | 26.7 | 12.2 | 26.7 | 14.4 | 41% | 27 | 76 | 1012.7 | ||||
| 04 | 11:53 | S 28 G 48 | 16.09 | Fair | CLR | 25.6 | 11.7 | 42% | 26 | 76.05 | 1013.5 | ||||||
| 04 | 10:53 | S 26 G 43 | 16.09 | Fair | CLR | 24.4 | 12.8 | 48% | 26 | 76.1 | 1014.1 | ||||||
| 04 | 09:53 | S 26 G 37 | 16.09 | Fair | CLR | 22.2 | 13.3 | 57% | 76.15 | 1014.7 | |||||||
| 04 | 08:53 | S 22 G 31 | 16.09 | Fair | CLR | 18.9 | 12.8 | 68% | 76.15 | 1014.9 | |||||||
| 04 | 07:53 | S 15 | 16.09 | Fair | CLR | 16.1 | 12.2 | 78% | 76.12 | 1014.7 | |||||||
| 04 | 06:53 | S 15 | 16.09 | Fair | CLR | 13.9 | 11.7 | 17.2 | 13.9 | 87% | 76.12 | 1014.4 | |||||
| 04 | 05:53 | S 13 | 16.09 | Fair | CLR | 13.9 | 11.1 | 83% | 76.12 | 1014.3 | |||||||
| 04 | 04:53 | S 9 | 16.09 | Fair | CLR | 14.4 | 11.1 | 81% | 76.12 | 1014.4 | |||||||
| 04 | 03:53 | S 11 | 16.09 | Fair | CLR | 15 | 11.1 | 78% | 76.15 | 1014.9 | |||||||
| 04 | 02:53 | S 15 | 16.09 | Fair | CLR | 16.1 | 10.6 | 70% | 76.17 | 1015.1 | |||||||
| 04 | 01:53 | S 15 | 16.09 | Fair | CLR | 16.7 | 10 | 65% | 76.23 | 1015.7 | |||||||
| 04 | 00:53 | S 13 | 16.09 | Fair | CLR | 17.2 | 10.6 | 25.6 | 17.2 | 65% | 76.25 | 1016.3 | |||||
| 03 | 23:53 | S 15 | 16.09 | Fair | CLR | 18.3 | 11.1 | 63% | 76.3 | 1016.7 | |||||||
| 03 | 22:53 | S 15 | 16.09 | Fair | CLR | 18.3 | 11.7 | 66% | 76.3 | 1016.8 | |||||||
| 03 | 21:53 | S 9 | 16.09 | Fair | CLR | 19.4 | 11.7 | 61% | 76.3 | 1016.8 | |||||||
| 03 | 20:53 | S 11 | 16.09 | Fair | CLR | 20 | 11.1 | 57% | 76.28 | 1016.4 | |||||||
| 03 | 19:53 | S 9 | 16.09 | Fair | CLR | 22.8 | 11.1 | 48% | 76.25 | 1016.4 | |||||||
| 03 | 18:53 | SW 15 | 16.09 | Fair | CLR | 26.1 | 10 | 27.8 | 26.1 | 36% | 26 | 76.28 | 1016.6 | ||||
| 03 | 17:53 | S 19 | 16.09 | Fair | CLR | 26.7 | 8.9 | 33% | 26 | 76.3 | 1016.9 | ||||||
| 03 | 16:53 | S 17 G 35 | 16.09 | Fair | CLR | 27.2 | 9.4 | 33% | 27 | 76.35 | 1017.6 | ||||||
| 03 | 15:53 | S 17 | 14.48 | Fair | CLR | 27.2 | 9.4 | 33% | 27 | 76.43 | 1018.5 | ||||||
| 03 | 14:53 | SW 13 | 16.09 | Fair | CLR | 26.7 | 8.9 | 33% | 26 | 76.5 | 1019.5 | ||||||
| 03 | 13:53 | S 19 G 31 | 16.09 | Fair | CLR | 26.7 | 8.9 | 33% | 26 | 76.56 | 1020.3 | ||||||
| 03 | 12:53 | SW 11 G 28 | 16.09 | Fair | CLR | 26.1 | 10 | 26.1 | 12.2 | 36% | 26 | 76.63 | 1021.2 | ||||
| 03 | 11:53 | SW 19 | 16.09 | Fair | CLR | 25.6 | 10.6 | 39% | 26 | 76.71 | 1022.1 | ||||||
| 03 | 10:53 | W 22 | 16.09 | Fair | CLR | 23.9 | 11.1 | 45% | 25 | 76.73 | 1022.5 | ||||||
| 03 | 09:53 | SW 15 | 16.09 | Fair | CLR | 21.7 | 11.7 | 53% | 76.73 | 1022.5 | |||||||
| 03 | 08:53 | SW 11 | 16.09 | Fair | CLR | 17.8 | 12.2 | 70% | 76.71 | 1022.4 | |||||||
| 03 | 07:53 | SW 7 | 16.09 | Fair | CLR | 13.9 | 10.6 | 81% | 76.68 | 1021.9 | |||||||
| 03 | 06:53 | SW 6 | 16.09 | Fair | CLR | 12.2 | 8.9 | 15 | 11.7 | 80% | 76.61 | 1021.1 | |||||
| 03 | 05:53 | W 7 | 16.09 | Fair | CLR | 11.7 | 8.9 | 83% | 76.58 | 1020.7 | |||||||
| 03 | 04:53 | SW 9 | 16.09 | Fair | CLR | 11.7 | 8.9 | 83% | 76.58 | 1020.6 | |||||||
| 03 | 03:53 | SW 13 | 16.09 | Fair | CLR | 12.2 | 8.9 | 80% | 76.56 | 1020.2 | |||||||
| 03 | 02:53 | SW 9 | 16.09 | Fair | CLR | 12.8 | 8.9 | 77% | 76.56 | 1020.2 | |||||||
| 03 | 01:53 | S 9 | 16.09 | Fair | CLR | 13.9 | 8.9 | 72% | 76.58 | 1020.7 | |||||||
| 03 | 00:53 | S 11 | 16.09 | Fair | CLR | 14.4 | 8.9 | 23.9 | 14.4 | 70% | 76.58 | 1020.8 | |||||
| 02 | 23:53 | S 9 | 16.09 | Fair | CLR | 15 | 10 | 72% | 76.58 | 1020.5 | |||||||
| 02 | 22:53 | S 9 | 16.09 | Fair | CLR | 16.7 | 10 | 65% | 76.58 | 1020.6 | |||||||
| 02 | 21:53 | Calm | 16.09 | Fair | CLR | 17.8 | 10.6 | 63% | 76.56 | 1020.2 | |||||||
| 02 | 20:53 | Calm | 16.09 | Fair | CLR | 18.3 | 10 | 59% | 76.5 | 1019.7 | |||||||
| 02 | 19:53 | Calm | 16.09 | Fair | CLR | 22.2 | 8.3 | 41% | 76.48 | 1019.4 | |||||||
| 02 | 18:53 | NW 7 | 16.09 | Fair | CLR | 23.9 | 7.8 | 25.6 | 22.8 | 36% | 25 | 76.45 | 1019.2 | ||||
| 02 | 17:53 | N 9 | 16.09 | Fair | CLR | 25 | 6.7 | 31% | 25 | 76.48 | 1019.2 | ||||||
| 02 | 16:53 | Calm | 16.09 | Fair | CLR | 25 | 7.2 | 32% | 25 | 76.48 | 1019.4 | ||||||
| 02 | 15:53 | N 6 | 16.09 | Fair | CLR | 24.4 | 7.8 | 35% | 25 | 76.53 | 1020.0 | ||||||
| 02 | 14:53 | Vrbl 7 | 16.09 | Fair | CLR | 24.4 | 7.8 | 35% | 25 | 76.56 | 1020.4 | ||||||
| 02 | 13:53 | Vrbl 7 | 16.09 | Fair | CLR | 23.3 | 7.2 | 36% | 76.61 | 1021.0 | |||||||
| 02 | 12:53 | N 13 | 16.09 | Fair | CLR | 22.8 | 6.1 | 23.3 | 10 | 34% | 76.66 | 1021.9 | |||||
| 02 | 11:53 | Vrbl 11 | 16.09 | Fair | CLR | 21.7 | 8.9 | 44% | 76.71 | 1022.6 | |||||||
| 02 | 10:53 | N 13 | 16.09 | Fair | CLR | 20 | 10.6 | 55% | 76.71 | 1022.3 | |||||||
| 02 | 09:53 | NW 17 | 16.09 | Fair | CLR | 18.9 | 10.6 | 59% | 76.68 | 1022.0 | |||||||
| 02 | 08:53 | NW 19 | 16.09 | Fair | CLR | 16.1 | 9.4 | 65% | 76.66 | 1021.7 | |||||||
| 02 | 07:53 | NW 9 | 16.09 | Fair | CLR | 12.2 | 10 | 87% | 76.61 | 1021.2 | |||||||
| 02 | 06:53 | NW 7 | 16.09 | Fair | CLR | 10.6 | 8.9 | 11.7 | 10.6 | 89% | 76.53 | 1020.3 | |||||
| 02 | 05:53 | N 11 | 16.09 | Fair | CLR | 11.7 | 8.9 | 83% | 76.45 | 1019.1 | |||||||
| 02 | 04:53 | NW 9 | 16.09 | Fair | CLR | 11.1 | 8.9 | 86% | 76.45 | 1019.2 | |||||||
| 02 | 03:53 | N 9 | 16.09 | Fair | CLR | 11.1 | 8.9 | 86% | 76.43 | 1018.8 | |||||||
| 02 | 02:53 | NW 9 | 16.09 | Fair | CLR | 11.1 | 8.9 | 86% | 76.43 | 1018.7 | |||||||
| 02 | 01:53 | NW 7 | 16.09 | Fair | CLR | 11.7 | 9.4 | 86% | 76.45 | 1019.2 | |||||||
| 02 | 00:53 | N 7 | 16.09 | Fair | CLR | 11.7 | 10 | 16.1 | 11.7 | 89% | 76.45 | 1019.1 | |||||
| 01 | 23:53 | N 9 | 16.09 | Fair | CLR | 12.2 | 10.6 | 90% | 76.45 | 1019.0 | |||||||
| 01 | 22:53 | Calm | 16.09 | Partly Cloudy | SCT110 | 13.3 | 10.6 | 84% | 76.4 | 1018.6 | |||||||
| 01 | 21:53 | NE 9 | 16.09 | Mostly Cloudy | BKN120 | 15 | 10 | 72% | 76.38 | 1018.0 | |||||||
| Date | Time (cdt) | Wind (kph) | Vis. (km) | Weather | Sky Cond. | Air | Dwpt | Max. | Min. | Relative Humidity | Wind Chill (°C) | Heat Index (°C) | altimeter (cm) | sea level (mb) | 1 hr | 3 hr | 6 hr |
| 6 hour | |||||||||||||||||
| Temperature (ºC) | Pressure | Precipitation (cm) | |||||||||||||||